Location: ??
(35.3149°N, 139.6204°E)
Time: 11:40:31
(UTC+00:00)

GOES 2 Rocket - Pass Details

Date: 03 August 2024
Orbit: 569 x 1664 km, 28.4° (Epoch: 10 September)

Event Time Altitude Azimuth Distance (km) Brightness Sun altitude
Exits shadow 18:39:24 19° 236° (SW) 2,186 5.2 -14.0°
Maximum altitude 18:43:39 41° 177° (S) 1,247 4.4 -13.3°
Drops below altitude 10° 18:48:38 10° 107° (ESE) 2,251 6.5 -12.5°
Sets 18:50:54 0° 100° (E) 3,055 7.4 -12.1°
